Location: Goodfare
(55.2420°N, 119.7689°W)
Time: 05:25:42
(UTC+00:00)

ISS - Pass Details

Date: 04 December 2021
Orbit: 413 x 423 km, 51.6° (Epoch: 18 January)

Event Time Altitude Azimuth Distance (km) Brightness Sun altitude
Rises 02:57:28 0° 273° (W) 2,383 1.4 -27.8°
Reaches altitude 10° 03:00:37 10° 241° (WSW) 1,510 -0.2 -28.2°
Enters shadow 03:01:37 12° 224° (SW) 1,397 -0.6 -28.4°
